Regional Weather Roundup
Issued by NWS Midland/Odessa, TX

Skip options and go directly to product.
Home | Oldest Version | Previous Version | Current Version | All | Text Only | Save Text | Print | Product List | Glossary Off

Skip product version selection by date and time.   

198
ASUS44 KMAF 301710
RWRMAF
MIDLAND AREA WEATHER ROUNDUP
NATIONAL WEATHER SERVICE MIDLAND TX
1100 AM CST FRI JAN 30 2015

...IN SOUTHWEST TEXAS AND SOUTHEAST NEW MEXICO...

CITY           SKY/WX    TMP DP  RH WIND       PRES   REMARKS
ALPINE         CLOUDY    42  31  66 NE10      30.38S WCI  36
ANDREWS        CLOUDY    41  29  63 E14       30.41S WCI  33
ARTESIA        CLOUDY    39  36  87 SE5       30.40F WCI  36
BIG SPRING     CLOUDY    44  29  54 NE12      30.45F WCI  39
CARLSBAD       LGT RAIN  41  34  76 E10       30.38F WCI  35
DRYDEN           N/A     51  33  50 E12       30.36F
FORT STOCKTON  CLOUDY    46  32  58 E10       30.36F
GUAD PASS      CLOUDY    31  30  96 NE38      30.23S FOG     WCI  15
HOBBS          LGT RAIN  37  32  81 E15       30.40S WCI  28
MARFA          CLOUDY    43  32  65 NE12G17   30.31F WCI  37
MIDLAND AIRPK  CLOUDY    43  30  59 E10       30.41F WCI  38
MIDLAND INTL   CLOUDY    43  30  60 E13       30.40F WCI  36
ODESSA         CLOUDY    43  29  57 E14       30.40F WCI  36
PECOS          CLOUDY    45  34  65 E8        30.38F
PRESIDIO       CLOUDY    54  34  48 NE13G23   30.26S
SEMINOLE       CLOUDY    40  27  59 E14       30.41F WCI  32
SNYDER         CLOUDY   N/A N/A N/A E15       30.45F
WINK           CLOUDY    45  28  51 E9        30.38S
$$
...OTHER STATIONS IN TEXAS...

CITY           SKY/WX    TMP DP  RH WIND       PRES   REMARKS
ABILENE        CLOUDY    44  29  55 E12       30.46S WCI  38
AMARILLO       CLOUDY    38  27  64 S14       30.42F WCI  30
AUSTIN         CLOUDY    50  36  58 NE14G21   30.44F
BROWNSVILLE    CLOUDY    68  62  81 N14       30.32S
CORPUS CHRISTI PTSUNNY   62  44  51 NE17      30.37F
DALLAS FTW     PTSUNNY   49  31  49 E8        30.49F
DEL RIO        CLOUDY    56  35  45 CALM      30.39F
EL PASO        CLOUDY    44  36  73 E9        30.25R WCI  39
HOUSTON INT    CLOUDY    56  39  53 NE9       30.43F
LUBBOCK        CLOUDY    40  26  57 E14       30.43R WCI  32
SAN ANGELO     CLOUDY    47  32  56 E10       30.43F
SAN ANTONIO    CLOUDY    55  35  47 NE12      30.42S
WACO           CLOUDY    49  33  54 NE12      30.49S
WICHITA FALLS  NOT AVBL
$$
...OTHER LOCATIONS IN NEW MEXICO...

CITY           SKY/WX    TMP DP  RH WIND       PRES   REMARKS
ALAMAGORDO     CLOUDY    41  41 100 W6        30.26R WCI  37
ALBUQUERQUE    LGT SNOW  34  30  85 E17       30.26F FOG     WCI  23
CANNON AFB     NOT AVBL
CLOVIS         CLOUDY    37  27  65 S12       30.39F WCI  30
HOLLOMAN AFB   CLOUDY    43  43 100 SW10      30.24S WCI  37
ROSWELL        LGT RAIN  41  34  76 CALM      30.38F
RUIDOSO        CLOUDY    28  28 100 SE14      30.30F WCI  17
SANTA FE       SNOW      30  27  88 S9        30.28S VSB 1/2 WCI  22
TRUTH OR CONSE LGT RAIN  38  36  92 N8        30.22F WCI  32
TUCUMCARI      LGT RAIN  39  31  72 SW7       30.38R WCI  34
$$

USA.gov is the U.S. government's official web portal to all federal, state and local government web resources and services.